User: anonymous   Login
Location: Maiden_LMO
(35.5760°N, 81.2120°W)
Time: 00:29:45
(UTC-05:00)
Language:

Cosmos 2278 Rocket - Orbit

View from above orbital plane
View from above orbital plane
View from above satellite
View from above satellite

Ground track
Ground track

The orbit data is extracted from the following two-line orbital elements,

1 23088U 94023B   17056.55174443 -.00000313  00000-0 -13788-3 0  9990
2 23088  71.0003 156.3632 0005855 269.6913  90.3539 14.14649978179750
Epoch (UTC): 25 February 2017 13:14:30
Eccentricity: 0.0005855
inclination: 71.0003°
perigee height: 839 km
apogee height: 848 km
right ascension of ascending node: 156.3632°
argument of perigee: 269.6913°
revolutions per day: 14.14649978
mean anomaly at epoch: 90.3539°
orbit number at epoch: 17975

The dashed part of the orbit path shows where the satellite is in the earth's shadow,  

DLR